Location: ?????????
(38.5999°N, 22.7695°E)
Time: 11:19:36
(UTC+00:00)

Genesis I - Pass Details

Date: 23 May 2024
Orbit: 432 x 466 km, 64.5° (Epoch: 23 June)

Event Time Altitude Azimuth Distance (km) Brightness Sun altitude
Exits shadow 00:31:20 48° 49° (NE) 596 3.8 -23.8°
Drops below altitude 10° 00:33:59 10° 35° (NE) 1,584 6.8 -23.6°
Sets 00:36:07 0° 34° (NNE) 2,469 8.1 -23.3°
